Cochin International Airp, India

6:28 AM IST on June 27, 2017 (GMT +0530)
Cochin International

Weather History for VOCI - March, 2014

Change the Weather History Date:

Wednesday, March 5, 2014

  Actual Average Record
Temperature  
Mean Temperature 83 °F -  
Max Temperature 93 °F - - ()
Min Temperature 73 °F - - ()
Cooling Degree Days 18    
Growing Degree Days 33 (Base 50)    
Moisture  
Dew Point 72 °F    
Average Humidity 74    
Maximum Humidity 94    
Minimum Humidity 49    
Precipitation  
Precipitation 0.00 in - - ()
Sea Level Pressure  
Sea Level Pressure 29.86 in    
Wind  
Wind Speed 3 mph ()    
Max Wind Speed 12 mph    
Max Gust Speed -    
Visibility 3.3 miles    
Events      
T = Trace of Precipitation, MM = Missing Value Source: Averaged Metar Reports

Daily Weather History Graph

Daily Weather History Graph

Search for Another Location

Airport or City:

Trip Planner

Search our weather history database for the weather conditions in past years. The results will help you decide how hot, cold, wet, or windy it might be!

Date:

Astronomy

Mar. 05, 2014 Rise Set
Actual Time 6:37 AM IST 6:35 PM IST
Civil Twilight 6:15 AM IST 6:56 PM IST
Nautical Twilight 5:51 AM IST 7:20 PM IST
Astronomical Twilight 5:27 AM IST 7:44 PM IST
Moon 9:34 AM IST (3/5) 10:19 PM IST (3/5)
Length of Visible Light 12h 40m
Length of Day
11h 58m
Waxing Crescent, 19% of the Moon is Illuminated
Mar 5
Waxing Crescent
Mar 8
First Quarter
Mar 16
Full
Mar 24
Last Quarter
Mar 31
New

Hourly Weather History & Observations

Time (IST) Temp. Heat Index Dew Point Humidity Pressure Visibility Wind Dir Wind Speed Gust Speed Precip Events Conditions
12:00 AM 78.8 °F - 71.6 °F 78% 29.89 in 3.1 mi North 2.3 mph - N/A   Haze
12:30 AM 78.8 °F - 71.6 °F 78% 29.89 in 3.1 mi Calm Calm - N/A   Haze
1:30 AM 77.0 °F - 71.6 °F 83% 29.86 in 3.1 mi North 5.8 mph - N/A   Haze
2:00 AM 75.2 °F - 71.6 °F 89% 29.86 in 3.1 mi NE 4.6 mph - N/A   Haze
2:30 AM 75.2 °F - 71.6 °F 89% 29.86 in 3.1 mi North 2.3 mph - N/A   Haze
3:00 AM 75.2 °F - 71.6 °F 89% 29.86 in 3.1 mi NNE 3.5 mph - N/A   Haze
3:30 AM 75.2 °F - 71.6 °F 89% 29.83 in 3.1 mi Calm Calm - N/A   Haze
4:00 AM 73.4 °F - 71.6 °F 94% 29.83 in 3.1 mi Calm Calm - N/A   Haze
5:30 AM 73.4 °F - 71.6 °F 94% 29.83 in 3.1 mi Calm Calm - N/A   Haze
6:00 AM 73.4 °F - 71.6 °F 94% 29.86 in 2.5 mi Calm Calm - N/A   Haze
6:30 AM 73.4 °F - 71.6 °F 94% 29.89 in 2.2 mi Calm Calm - N/A   Haze
7:30 AM 75.2 °F - 71.6 °F 89% 29.92 in 1.9 mi NNE 4.6 mph - N/A   Haze
8:00 AM 77.0 °F - 71.6 °F 83% 29.92 in 1.9 mi NE 4.6 mph - N/A   Haze
8:30 AM 78.8 °F - 71.6 °F 78% 29.92 in 1.9 mi ENE 4.6 mph - N/A   Haze
9:00 AM 80.6 °F 84.6 °F 71.6 °F 74% 29.95 in 2.5 mi East 4.6 mph - N/A   Haze
9:30 AM 82.4 °F 87.2 °F 71.6 °F 70% 29.92 in 2.5 mi NNE 4.6 mph - N/A   Haze
10:30 AM 86.0 °F 90.4 °F 69.8 °F 58% 29.92 in 3.1 mi East 9.2 mph - N/A   Haze
11:00 AM 87.8 °F 93.8 °F 71.6 °F 58% 29.92 in 3.7 mi ESE 5.8 mph - N/A   Haze
11:30 AM 89.6 °F 96.2 °F 71.6 °F 55% 29.89 in 4.3 mi SSW 5.8 mph - N/A   Haze
12:00 PM 91.4 °F 98.4 °F 71.6 °F 52% 29.86 in 4.3 mi WNW 4.6 mph - N/A   Haze
12:30 PM 91.4 °F 98.4 °F 71.6 °F 52% 29.86 in 4.3 mi West 4.6 mph - N/A   Unknown
1:00 PM 91.4 °F 100.1 °F 73.4 °F 55% 29.83 in 4.3 mi NNW 3.5 mph - N/A   Scattered Clouds
1:30 PM 91.4 °F 98.4 °F 71.6 °F 52% 29.83 in 4.3 mi West 6.9 mph - N/A   Scattered Clouds
2:00 PM 93.2 °F 100.5 °F 71.6 °F 49% 29.80 in 4.3 mi WNW 6.9 mph - N/A   Scattered Clouds
2:30 PM 93.2 °F 102.4 °F 73.4 °F 52% 29.80 in 4.3 mi SW 8.1 mph - N/A   Scattered Clouds
3:30 PM 91.4 °F 100.1 °F 73.4 °F 55% 29.77 in 4.3 mi West 11.5 mph - N/A   Partly Cloudy
4:00 PM 89.6 °F 98.2 °F 73.4 °F 59% 29.77 in 3.7 mi West 10.4 mph - N/A   Partly Cloudy
4:30 PM 89.6 °F 98.2 °F 73.4 °F 59% 29.77 in 3.7 mi West 6.9 mph - N/A   Partly Cloudy
5:00 PM 89.6 °F 98.2 °F 73.4 °F 59% 29.77 in 3.7 mi WNW 6.9 mph - N/A   Partly Cloudy
5:30 PM 87.8 °F 95.6 °F 73.4 °F 62% 29.77 in 3.7 mi West 9.2 mph - N/A   Partly Cloudy
7:00 PM 82.4 °F 88.2 °F 73.4 °F 74% 29.80 in 3.1 mi West 6.9 mph - N/A   Haze
7:30 PM 82.4 °F 88.2 °F 73.4 °F 74% 29.83 in 3.1 mi West 5.8 mph - N/A   Haze
8:00 PM 80.6 °F 85.4 °F 73.4 °F 79% 29.86 in 3.1 mi Calm Calm - N/A   Haze
8:30 PM 80.6 °F 85.4 °F 73.4 °F 79% 29.86 in 3.1 mi Calm Calm - N/A   Haze
9:00 PM 80.6 °F 85.4 °F 73.4 °F 79% 29.89 in 3.1 mi Calm Calm - N/A   Haze
9:30 PM 78.8 °F - 73.4 °F 83% 29.89 in 3.1 mi Calm Calm - N/A   Haze
10:00 PM 78.8 °F - 77.0 °F 94% 29.89 in 3.1 mi Calm Calm - N/A   Haze
10:30 PM 78.8 °F - 73.4 °F 83% 29.89 in 3.1 mi Calm Calm - N/A   Haze
11:00 PM 78.8 °F - 71.6 °F 78% 29.89 in 3.1 mi Calm Calm - N/A   Haze
11:30 PM 78.8 °F - 73.4 °F 83% 29.89 in 3.1 mi Calm Calm - N/A   Haze